Wind_Speed
47 45 44 43 42 41 40 40 40 40 41 41 41 41 41 41 40 40 41 41 41 41 40 40 40 40 40 40 40 41 41 42 42 42 42 42 42 42 42 42 41 41
45 45 44 44 43 43 43 43 43 43 42 41 40 40 39 38 38 38 38 39 38 37 37 36 36 36 37 38 39 40 41 41 42 43 43 43 43 44 44 44 44 43
45 46 46 46 46 45 45 45 45 44 42 41 40 39 38 37 36 36 36 36 34 32 30 30 31 32 35 37 38 39 40 40 41 43 44 45 45 46 46 46 46 46
47 47 47 47 46 45 44 44 43 42 41 40 39 38 37 37 36 35 34 31 28 27 28 30 32 36 39 41 42 42 42 42 43 43 44 45 46 47 47 48 48 48
47 46 46 45 43 42 42 41 40 40 39 39 38 38 38 37 36 34 31 28 27 29 33 36 41 44 46 46 45 45 45 45 46 46 46 47 48 48 48 49 49 50
45 44 43 42 40 40 39 39 39 38 39 39 39 39 39 38 37 34 31 31 34 38 42 46 49 51 50 50 49 48 48 49 49 49 49 49 49 50 50 50 51 51
42 41 40 39 38 38 38 38 38 39 40 40 41 41 41 40 40 39 39 42 45 48 51 54 55 54 53 53 52 51 51 52 52 51 51 51 51 52 52 52 52 52
41 39 38 37 37 37 37 38 39 40 41 42 43 43 44 45 46 48 50 52 54 56 58 58 57 56 55 55 55 55 55 54 54 53 53 53 53 53 53 53 53 53
39 39 37 37 37 38 39 40 41 42 43 43 44 45 47 49 51 53 55 57 59 60 60 59 58 57 57 57 58 58 58 57 56 56 55 55 54 54 54 54 54 54
37 37 38 38 39 40 41 42 43 44 45 46 46 48 49 50 52 54 57 59 61 61 61 60 59 59 59 60 61 61 60 59 58 57 57 56 55 55 54 54 54 54
37 38 39 40 41 42 44 45 46 46 48 49 50 51 52 53 54 57 59 61 62 62 62 61 62 62 62 63 63 62 62 61 59 58 58 57 55 54 54 54 53 53
42 43 43 45 46 46 47 47 47 48 50 52 53 54 55 56 58 60 61 62 62 63 63 64 64 65 65 65 65 64 63 62 60 59 58 58 56 54 54 54 54 53
47 47 48 48 49 49 49 48 49 50 51 52 54 55 57 58 59 61 62 62 63 64 65 66 66 66 66 66 66 66 64 62 61 60 59 59 57 56 56 56 56 56
46 46 48 49 50 49 49 48 48 49 51 52 53 55 56 57 59 61 62 63 64 65 66 67 68 68 68 68 67 66 64 63 62 61 60 60 58 57 57 57 58 58
47 48 49 48 46 45 46 47 48 50 51 52 54 55 57 59 61 63 64 65 66 67 68 69 70 70 70 69 68 66 65 63 62 61 61 60 59 59 59 59 60 61
50 49 46 44 43 44 47 49 51 53 54 55 57 59 62 63 65 66 67 67 68 68 69 70 71 71 70 69 68 66 65 63 62 62 62 61 61 61 62 63 63 64
51 48 46 46 47 49 51 53 55 57 58 60 62 64 66 68 69 69 69 69 69 70 70 71 71 70 69 69 67 65 64 63 62 63 63 63 64 64 65 67 68 69
52 51 52 53 53 54 56 58 60 61 62 65 67 68 70 70 70 70 70 70 71 71 71 71 70 69 68 67 65 64 63 63 63 64 64 65 66 67 69 70 71 72
52 53 54 56 57 58 60 61 63 64 66 68 69 70 71 71 71 71 72 72 72 72 72 71 69 68 66 64 64 63 63 64 64 64 65 67 68 70 72 73 74 75
55 56 58 60 62 64 65 66 67 69 70 71 71 72 72 72 72 73 73 73 73 72 71 70 67 65 64 63 63 63 63 64 65 66 67 69 71 73 74 75 75 76
61 63 64 66 67 68 69 70 71 72 72 72 72 72 72 72 73 73 73 73 73 72 70 68 66 64 62 62 61 62 63 64 66 68 70 72 73 74 75 75 76 76
64 65 66 67 68 69 70 71 72 72 72 72 71 71 71 72 73 73 73 73 72 71 68 66 63 61 60 60 61 62 64 67 69 71 72 73 74 75 75 75 75 73
64 65 66 67 69 70 70 71 71 70 70 70 70 71 71 72 73 74 73 72 70 68 65 62 59 59 59 60 62 64 67 69 71 72 73 74 75 75 75 74 72 70
66 67 69 70 70 70 69 69 69 69 70 70 71 72 72 73 74 73 72 69 67 64 61 59 58 59 60 63 65 67 69 71 72 73 74 75 76 75 73 72 71 70
70 71 72 72 71 69 68 69 70 70 71 72 73 73 74 74 73 71 68 65 63 60 59 58 60 62 64 66 68 70 71 73 74 76 77 77 75 74 72 71 71 72
72 72 71 70 70 69 68 70 72 72 73 74 74 75 75 73 71 68 65 62 60 59 59 61 63 65 67 69 71 72 74 76 77 78 78 77 75 74 73 73 74 74
Wind_Direction
270 271 272 275 279 281 283 285 287 287 287 287 288 289 290 291 292 293 294 295 295 296 297 299 300 301 302 302 302 301 301 299 298 296 294 293 291 290 289 288 287 287
268 270 273 276 278 281 283 284 285 286 286 286 287 289 290 291 292 294 295 296 297 299 301 303 306 307 308 307 306 305 303 302 300 298 296 295 293 291 290 289 288 287
268 271 273 275 277 280 281 282 283 283 284 285 286 288 289 290 292 293 295 296 298 301 305 309 313 315 316 315 313 311 309 307 304 302 300 298 296 294 292 291 289 288
270 272 274 276 277 278 279 280 281 282 283 285 287 288 289 290 291 292 293 295 298 303 308 311 314 316 318 317 316 314 312 310 307 305 303 301 299 297 295 293 291 290
269 271 274 276 277 278 278 279 280 282 284 286 287 288 289 290 291 291 291 293 297 303 307 309 311 313 315 316 315 314 313 311 309 306 303 301 299 297 295 294 292 291
268 271 274 276 277 277 277 278 280 283 285 286 288 290 292 293 292 290 290 293 298 302 304 307 309 310 311 313 313 312 312 311 309 306 303 301 299 297 295 294 292 291
268 272 274 276 276 276 276 278 280 283 285 286 288 290 292 294 294 292 291 294 297 300 303 306 308 308 309 310 310 310 310 310 308 306 304 302 300 298 296 294 292 291
269 272 274 275 276 277 278 280 282 283 284 285 286 288 290 292 293 293 293 294 295 298 301 304 307 307 307 308 308 308 309 308 308 306 304 303 301 299 296 294 293 292
268 270 273 276 278 281 282 284 285 285 285 285 286 288 290 291 291 292 294 295 296 299 301 304 305 306 305 306 306 307 307 307 307 306 305 304 302 300 297 295 293 292
267 272 276 279 281 283 285 287 288 287 287 286 287 288 289 291 292 293 294 296 298 300 301 303 304 304 304 304 305 306 306 306 306 306 305 304 302 300 297 295 293 292
272 276 279 281 283 285 288 290 289 288 287 287 288 289 290 291 292 294 295 297 299 300 301 302 302 302 303 304 304 305 305 305 305 305 304 303 301 299 297 295 293 291
273 277 280 283 285 288 290 290 288 287 287 288 289 289 291 292 294 295 296 298 299 300 301 301 301 302 303 303 304 304 304 304 304 303 303 301 300 298 297 295 294 292
276 279 283 285 288 289 289 288 288 288 288 289 289 291 292 293 294 295 297 298 299 300 300 300 301 302 303 303 304 304 303 303 302 302 301 300 299 298 297 296 295 293
280 282 284 286 287 286 286 286 286 287 288 289 289 291 292 293 294 296 297 298 299 299 299 299 300 302 303 303 303 302 302 301 301 300 300 299 298 298 297 296 295 294
280 281 283 283 283 282 283 285 285 286 287 287 288 290 291 292 294 295 296 297 298 298 298 299 301 302 302 302 302 301 300 299 299 299 298 298 297 297 296 295 295 294
278 279 279 278 278 280 282 283 284 285 285 286 288 289 290 292 293 294 296 296 296 297 298 300 301 301 301 300 299 299 298 298 298 297 297 296 296 296 296 296 295 294
274 273 271 271 273 276 278 280 282 283 284 285 287 288 290 291 293 294 295 295 296 297 299 300 300 300 299 298 298 297 297 297 296 296 296 296 296 296 296 296 296 295
271 271 271 271 273 274 276 279 280 281 282 284 285 287 289 291 293 294 295 296 298 299 300 300 299 299 298 297 296 296 295 295 295 295 295 295 295 296 296 296 296 295
270 271 271 272 273 275 276 278 279 281 282 284 286 288 290 292 293 295 296 298 299 299 299 299 298 298 297 295 295 294 294 294 294 294 295 295 295 295 295 295 295 295
268 269 271 273 275 276 278 279 281 282 284 285 287 289 291 293 294 296 297 298 298 298 298 298 297 297 295 294 294 293 293 294 294 294 295 295 295 295 295 295 294 294
269 271 273 276 277 279 280 282 283 284 285 287 289 291 292 294 295 297 297 298 297 297 297 297 297 296 295 294 293 293 293 294 295 295 295 295 295 295 295 295 295 295
272 273 275 278 279 281 282 283 284 285 286 288 290 292 294 295 296 297 297 297 297 297 297 297 296 295 294 294 294 294 295 295 295 295 295 296 296 296 296 297 297 297
273 275 277 279 280 282 282 283 284 286 288 290 291 293 294 296 296 296 297 297 297 297 297 297 296 295 295 295 296 296 296 296 296 296 297 298 298 299 299 300 300 299
274 276 278 280 281 282 283 284 286 288 289 291 292 293 295 296 296 297 297 297 298 298 297 296 296 296 297 297 298 297 297 298 298 299 300 300 301 301 302 302 302 301
276 278 280 281 282 282 283 285 287 288 290 291 293 294 296 296 297 297 298 298 297 297 296 296 297 298 298 299 299 299 300 301 301 302 302 302 303 303 303 303 303 302
278 280 281 281 282 282 284 286 288 290 291 293 295 296 297 297 298 298 297 297 297 296 297 297 298 299 299 300 301 301 302 303 303 303 304 304 305 305 305 305 305 305
Height
10706 10706 10705 10704 10704 10703 10702 10701 10700 10699 10698 10696 10695 10693 10692 10691 10690 10688 10687 10686 10684 10683 10682 10681 10680 10679 10678 10677 10675 10674 10672 10671 10669 10668 10666 10665 10664 10662 10660 10659 10658 10657
10702 10701 10700 10700 10699 10698 10697 10696 10695 10694 10693 10691 10690 10688 10687 10686 10685 10683 10682 10681 10680 10679 10678 10677 10676 10675 10674 10672 10671 10670 10668 10667 10665 10664 10662 10661 10659 10657 10656 10654 10652 10651
10696 10696 10695 10695 10694 10694 10693 10691 10690 10689 10688 10687 10685 10684 10683 10681 10680 10679 10677 10676 10676 10675 10674 10673 10672 10671 10670 10669 10667 10666 10664 10663 10661 10659 10657 10656 10654 10653 10651 10649 10647 10646
10691 10691 10690 10690 10690 10689 10688 10686 10685 10684 10683 10682 10681 10680 10678 10677 10676 10674 10673 10672 10672 10671 10670 10669 10668 10667 10666 10665 10663 10661 10659 10658 10656 10654 10652 10650 10649 10647 10645 10644 10642 10640
10686 10686 10685 10685 10685 10684 10683 10681 10680 10679 10678 10677 10677 10675 10674 10673 10671 10670 10669 10668 10668 10667 10666 10665 10664 10662 10661 10660 10658 10656 10654 10652 10650 10648 10646 10644 10643 10641 10639 10638 10636 10634
10681 10681 10680 10680 10679 10678 10677 10676 10675 10674 10673 10672 10672 10671 10670 10669 10667 10666 10665 10664 10663 10662 10661 10660 10659 10657 10656 10654 10652 10650 10648 10646 10644 10642 10640 10638 10637 10635 10633 10631 10629 10628
10676 10675 10675 10674 10674 10673 10671 10671 10670 10669 10668 10667 10666 10666 10665 10664 10663 10662 10661 10659 10658 10657 10656 10655 10653 10652 10650 10648 10646 10644 10642 10640 10638 10636 10634 10632 10630 10628 10626 10624 10622 10621
10671 10670 10670 10669 10668 10668 10666 10666 10665 10664 10663 10662 10661 10661 10660 10659 10658 10657 10656 10654 10653 10651 10650 10649 10647 10646 10644 10642 10640 10638 10636 10634 10632 10629 10627 10625 10623 10621 10619 10617 10616 10614
10665 10664 10664 10663 10663 10662 10661 10661 10660 10659 10658 10657 10656 10655 10654 10653 10652 10651 10650 10648 10647 10646 10644 10643 10641 10639 10637 10635 10633 10631 10629 10627 10625 10623 10620 10618 10615 10613 10611 10610 10608 10607
10659 10658 10658 10658 10658 10657 10656 10655 10654 10654 10653 10652 10651 10650 10648 10647 10646 10644 10643 10642 10641 10640 10638 10637 10635 10633 10631 10628 10626 10624 10622 10620 10618 10615 10613 10610 10608 10606 10603 10602 10600 10599
10653 10653 10653 10652 10652 10652 10651 10650 10648 10647 10647 10645 10645 10644 10642 10641 10640 10638 10637 10635 10634 10633 10631 10630 10628 10626 10624 10621 10619 10617 10614 10612 10610 10607 10605 10603 10601 10598 10596 10594 10592 10591
10648 10647 10647 10647 10647 10646 10645 10644 10643 10641 10640 10639 10638 10637 10636 10635 10633 10632 10630 10629 10628 10626 10624 10622 10620 10619 10616 10614 10611 10609 10606 10604 10602 10600 10597 10595 10593 10591 10588 10586 10584 10583
10643 10642 10642 10642 10641 10640 10639 10638 10636 10635 10634 10633 10632 10631 10630 10629 10627 10626 10624 10623 10621 10619 10617 10615 10613 10611 10609 10606 10603 10601 10598 10596 10593 10591 10589 10587 10585 10582 10580 10578 10576 10574
10637 10637 10637 10636 10635 10634 10632 10631 10630 10629 10628 10627 10626 10625 10624 10622 10621 10619 10618 10616 10614 10612 10610 10608 10605 10603 10601 10598 10595 10593 10590 10588 10585 10583 10580 10578 10576 10574 10572 10570 10567 10566
10633 10632 10631 10630 10629 10628 10627 10625 10624 10623 10622 10621 10620 10619 10617 10616 10615 10613 10611 10609 10608 10605 10603 10600 10598 10595 10592 10590 10587 10585 10582 10580 10577 10575 10572 10570 10568 10566 10564 10562 10560 10558
10628 10627 10626 10625 10624 10622 10621 10620 10619 10618 10616 10615 10614 10613 10611 10610 10608 10606 10605 10603 10601 10599 10596 10593 10590 10587 10585 10582 10579 10577 10574 10571 10569 10566 10564 10562 10559 10557 10555 10553 10551 10549
10622 10621 10621 10619 10618 10617 10616 10614 10613 10612 10610 10609 10608 10606 10605 10603 10602 10600 10599 10597 10594 10592 10589 10586 10583 10580 10577 10574 10571 10569 10566 10563 10561 10558 10556 10553 10551 10548 10546 10543 10541 10539
10616 10616 10615 10614 10613 10612 10610 10609 10607 10606 10605 10603 10601 10600 10599 10597 10596 10594 10592 10589 10587 10584 10581 10578 10575 10572 10569 10566 10563 10561 10558 10555 10553 10550 10548 10545 10543 10540 10537 10534 10532 10529
10611 10610 10609 10608 10607 10606 10604 10603 10602 10600 10599 10597 10595 10594 10593 10591 10589 10587 10584 10582 10579 10576 10572 10569 10567 10564 10561 10558 10555 10553 10550 10548 10545 10543 10540 10537 10534 10531 10528 10525 10522 10519
10606 10605 10603 10602 10601 10600 10598 10597 10596 10594 10593 10591 10590 10588 10587 10585 10582 10579 10577 10574 10570 10567 10564 10561 10558 10556 10553 10550 10547 10545 10542 10540 10537 10535 10532 10529 10526 10523 10519 10516 10513 10510
10600 10599 10598 10596 10595 10594 10593 10591 10589 10588 10586 10585 10583 10582 10580 10578 10575 10572 10569 10566 10562 10559 10556 10553 10550 10548 10545 10542 10539 10537 10534 10532 10529 10526 10523 10520 10517 10514 10510 10507 10503 10500
10594 10593 10592 10590 10589 10588 10586 10585 10583 10581 10580 10579 10577 10575 10573 10571 10568 10565 10561 10558 10554 10551 10548 10545 10542 10539 10537 10534 10532 10529 10526 10524 10521 10517 10514 10511 10507 10504 10500 10496 10493 10489
10588 10587 10586 10584 10583 10582 10580 10578 10577 10575 10573 10572 10570 10568 10566 10563 10560 10557 10553 10550 10546 10543 10540 10537 10535 10532 10529 10527 10524 10521 10518 10515 10512 10508 10505 10501 10497 10494 10490 10486 10482 10478
10582 10580 10579 10578 10576 10575 10573 10571 10570 10568 10566 10565 10563 10561 10559 10556 10552 10549 10545 10542 10539 10536 10533 10530 10527 10525 10522 10519 10516 10513 10510 10506 10502 10499 10495 10491 10487 10484 10480 10476 10472 10468
10575 10574 10572 10571 10569 10568 10566 10564 10562 10561 10559 10557 10556 10554 10551 10548 10544 10541 10537 10534 10531 10529 10526 10523 10520 10517 10514 10511 10508 10504 10501 10497 10493 10489 10485 10482 10478 10474 10470 10466 10462 10457
10568 10567 10566 10564 10562 10561 10559 10557 10555 10553 10552 10550 10548 10545 10542 10539 10536 10533 10530 10527 10524 10522 10519 10516 10513 10509 10506 10503 10499 10496 10492 10488 10484 10480 10476 10472 10468 10464 10459 10455 10450 10445